Location: Poughquag
(41.6090°N, 73.6820°W)
Time: 19:20:40
(UTC-04:00)

NOAA 18 - Pass Details

Date: 19 September 2024
Orbit: 837 x 859 km, 98.9° (Epoch: 04 October)

Event Time Altitude Azimuth Distance (km) Brightness Sun altitude
Exits shadow 22:05:40 17° 21° (NNE) 2,041 7.3 -33.8°
Drops below altitude 10° 22:07:09 10° 9° (N) 2,482 7.9 -34.0°
Sets 22:09:50 0° 358° (N) 3,417 8.9 -34.4°
